User: anonymous   Login
Location: Unspecified
(0.0000°N, 0.0000°E)
Time: 23:01:11
(UTC+02:00)
Language:

Cosmos 1782 Rocket - Orbit

View from above orbital plane
View from above orbital plane
View from above satellite
View from above satellite

Ground track
Ground track

The orbit data is extracted from the following two-line orbital elements,

1 16987U 86074B   18172.96386781  .00000080  00000-0  68957-5 0  9991
2 16987  82.5160 324.1013 0019583 120.1947   0.0648 14.83010157713277
Epoch (UTC): 21 June 2018 23:07:58
Eccentricity: 0.0019583
inclination: 82.5160°
perigee height: 606 km
apogee height: 633 km
right ascension of ascending node: 324.1013°
argument of perigee: 120.1947°
revolutions per day: 14.83010157
mean anomaly at epoch: 0.0648°
orbit number at epoch: 71327

The dashed part of the orbit path shows where the satellite is in the earth's shadow,  

DLR